Overview Statistics Trail Chart Weather Telemetry Raw packets
 

This is the latest recevied weather packets stored in our database for station/object KBTL-WX. If no packets are shown the sender has not sent any weather packets the latest 10 day(s).

<< 25 26 27 28 29 30 31 >>
Time Temp. Humidity Pressure Rain* Wind** Luminosity Snow
1777358712 14.44° C 85% 971.2 hPa 0 mm - - -
1777357832 14.44° C 85% 971.2 hPa 0 mm - - -
1777356913 15.56° C 85% 971.2 hPa 0 mm - - -
1777356041 15° C 85% 971.2 hPa 0 mm - - -
1777355116 15° C 92% 971.3 hPa 0 mm - - -
1777354226 15.56° C 92% 971.3 hPa 0 mm - - -
1777353317 15.56° C 92% 971.3 hPa 0.51 mm - - -
1777352435 15.56° C 92% 971.3 hPa 0.51 mm - - -
1777351517 15.56° C 92% 973.4 hPa 3.05 mm - - -
1777350631 15° C 84% 973.1 hPa 3.05 mm - - -
1777349718 14.44° C 84% 973 hPa 0.51 mm - - -
1777348840 14.44° C 84% 973 hPa 0.51 mm - - -
1777347918 14.44° C 80% 974.5 hPa 0.76 mm - - -
1777347030 15° C 78% 973.8 hPa 0.76 mm - - -
1777346114 15° C 78% 973.8 hPa 0 mm - - -
1777345236 15.56° C 78% 973.8 hPa 0 mm - - -
1777344313 15.56° C 78% 972.7 hPa 0 mm - - -
1777343426 15° C 84% 972.4 hPa 0 mm - - -
1777342516 15° C 84% 972.4 hPa 0 mm - - -
1777341633 15° C 84% 972.4 hPa 0 mm - - -
1777340717 15.56° C 87% 971.3 hPa 0 mm - - -
1777339826 15.56° C 87% 971.3 hPa 0 mm - - -
1777338916 15.56° C 87% 971.3 hPa 0 mm - - -
1777338034 15.56° C 87% 971.3 hPa 0 mm - - -
1777337112 15.56° C 86% 974.6 hPa 0 mm - - -

* Rain latest hour (hover to see other rain measurements)
** Current wind speed in m/s (hover to see current wind gust speed)